Location: Larkspur
(54.4391°N, 113.7691°W)
Time: 02:06:10
(UTC+00:00)

YUBILEINY - Pass Details

Date: 01 December 2023
Orbit: 1479 x 1508 km, 82.5° (Epoch: 03 March)

Event Time Altitude Azimuth Distance (km) Brightness Sun altitude
Rises 05:22:13 0° 347° (NNW) 4,640 ? -50.1°
Reaches altitude 10° 05:25:14 10° 342° (NNW) 3,652 ? -50.4°
Enters shadow 05:29:35 30° 324° (NW) 2,415 ? -50.9°
